TimeMST,TemperatureF,Dew PointF,Humidity,Sea Level PressureIn,VisibilityMPH,Wind Direction,Wind SpeedMPH,Gust SpeedMPH,PrecipitationIn,Events,Conditions,WindDirDegrees,DateUTC
12:52 AM,33.1,23.0,66,29.62,10.0,NNW,6.9,-,N/A,,Overcast,330,2014-01-10 07:52:00
1:52 AM,34.0,23.0,64,29.62,10.0,NW,9.2,-,N/A,,Scattered Clouds,310,2014-01-10 08:52:00
2:52 AM,36.0,24.1,62,29.63,10.0,NW,10.4,-,N/A,,Overcast,320,2014-01-10 09:52:00
3:52 AM,32.0,23.0,69,29.65,10.0,NW,3.5,-,N/A,,Clear,310,2014-01-10 10:52:00
4:52 AM,28.9,21.9,75,29.67,10.0,NW,8.1,-,N/A,,Overcast,320,2014-01-10 11:52:00
5:52 AM,33.1,23.0,66,29.66,10.0,NNW,8.1,-,N/A,,Overcast,330,2014-01-10 12:52:00
6:52 AM,30.9,23.0,72,29.67,10.0,NW,5.8,-,N/A,,Overcast,320,2014-01-10 13:52:00
7:52 AM,27.0,19.9,75,29.69,10.0,West,5.8,-,N/A,,Mostly Cloudy,280,2014-01-10 14:52:00
8:52 AM,36.0,23.0,59,29.68,10.0,WNW,6.9,-,N/A,,Clear,290,2014-01-10 15:52:00
9:52 AM,39.0,19.0,45,29.68,10.0,WNW,10.4,-,N/A,,Clear,300,2014-01-10 16:52:00
10:52 AM,42.1,18.0,38,29.65,10.0,NNW,10.4,-,N/A,,Clear,340,2014-01-10 17:52:00
11:52 AM,42.1,17.1,37,29.62,10.0,North,9.2,-,N/A,,Scattered Clouds,350,2014-01-10 18:52:00
12:52 PM,42.1,16.0,35,29.60,10.0,North,5.8,-,N/A,,Clear,10,2014-01-10 19:52:00
1:52 PM,42.1,16.0,35,29.60,10.0,NW,4.6,-,N/A,,Scattered Clouds,310,2014-01-10 20:52:00
2:52 PM,42.1,17.1,37,29.61,10.0,Calm,Calm,-,N/A,,Clear,0,2014-01-10 21:52:00
3:52 PM,39.0,19.9,46,29.63,10.0,NW,3.5,-,N/A,,Partly Cloudy,320,2014-01-10 22:52:00
4:52 PM,35.1,21.0,57,29.67,10.0,NNW,8.1,-,N/A,,Mostly Cloudy,330,2014-01-10 23:52:00
5:52 PM,36.0,21.9,57,29.66,10.0,NW,5.8,-,N/A,,Overcast,310,2014-01-11 00:52:00
6:52 PM,34.0,23.0,64,29.69,10.0,NNW,4.6,-,N/A,,Overcast,330,2014-01-11 01:52:00
7:52 PM,35.1,23.0,61,29.69,10.0,West,4.6,-,N/A,,Overcast,280,2014-01-11 02:52:00
8:52 PM,36.0,23.0,59,29.70,10.0,NW,9.2,-,N/A,,Overcast,310,2014-01-11 03:52:00
9:52 PM,36.0,26.1,67,29.72,10.0,NNW,10.4,-,N/A,,Mostly Cloudy,330,2014-01-11 04:52:00
10:52 PM,36.0,27.0,70,29.73,10.0,NW,16.1,-,N/A,,Clear,310,2014-01-11 05:52:00
11:52 PM,37.0,25.0,62,29.73,10.0,NW,26.5,34.5,N/A,,Clear,320,2014-01-11 06:52:00